Fargo, ND

4:14 AM CDT on May 23, 2017 (GMT -0500)
Hector International

Weather History for KFAR - August, 2014

Change the Weather History Date:

Monday, August 18, 2014

  Actual Average Record
Temperature  
Mean Temperature 71 °F 69 °F  
Max Temperature 79 °F 81 °F 106 °F (1976)
Min Temperature 63 °F 57 °F 41 °F (2002)
Degree Days  
Heating Degree Days 0 1  
Month to date heating degree days 0 14  
Since 1 June heating degree days 50 103  
Since 1 July heating degree days 20 30  
Cooling Degree Days 6 5  
Month to date cooling degree days 108 112  
Year to date cooling degree days 452 452  
Since 1 June cooling degree days 373 421  
Growing Degree Days 22 (Base 50)    
Moisture  
Dew Point 64 °F    
Average Humidity 81    
Maximum Humidity 100    
Minimum Humidity 62    
Precipitation  
Precipitation 0.07 in 0.08 in 2.20 in (1884)
Month to date precipitation 1.19 1.33  
Year to date precipitation 15.54 14.83  
Snow  
Snow 0.00 in 0.00 in 0.00 in ()
Month to date snowfall 0.0 0.0  
Since 1 June snowfall 0.0 0.0  
Since 1 July snowfall 0.0 0.0  
Snow Depth 0.00 in    
Sea Level Pressure  
Sea Level Pressure 29.74 in    
Wind  
Wind Speed 7 mph (SW)    
Max Wind Speed 17 mph    
Max Gust Speed 20 mph    
Visibility 8 miles    
Events Rain    
T = Trace of Precipitation, MM = Missing Value Source: NWS Daily Summary

Daily Weather History Graph

Daily Weather History Graph

Search for Another Location

Airport or City:

Trip Planner

Search our weather history database for the weather conditions in past years. The results will help you decide how hot, cold, wet, or windy it might be!

Date:

Astronomy

Aug. 18, 2014 Rise Set
Actual Time 6:28 AM CDT 8:32 PM CDT
Civil Twilight 5:55 AM CDT 9:05 PM CDT
Nautical Twilight 5:14 AM CDT 9:45 PM CDT
Astronomical Twilight 4:29 AM CDT 10:31 PM CDT
Moon 12:31 AM CDT (8/18) 3:43 PM CDT (8/18)
Length of Visible Light 15h 09m
Length of Day
14h 04m
Last Quarter, 38% of the Moon is Illuminated
Aug 18
Last Quarter
Aug 25
New
Sep 2
First Quarter
Sep 8
Full
Sep 15
Last Quarter

Hourly Weather History & Observations

Time (CDT) Temp. Dew Point Humidity Pressure Visibility Wind Dir Wind Speed Gust Speed Precip Events Conditions
12:12 AM 66.0 °F 63.0 °F 90% 29.83 in 10.0 mi SE 9.2 mph - N/A   Mostly Cloudy
12:43 AM 66.0 °F 64.0 °F 93% 29.83 in 10.0 mi South 10.4 mph - N/A   Mostly Cloudy
12:53 AM 66.0 °F 64.0 °F 93% 29.83 in 10.0 mi West 3.5 mph - N/A   Overcast
1:20 AM 66.0 °F 64.0 °F 93% 29.79 in 6.0 mi NE 11.5 mph - 0.02 in Rain Light Rain
1:38 AM 64.9 °F 64.0 °F 97% 29.79 in 8.0 mi East 9.2 mph - 0.02 in   Scattered Clouds
1:53 AM 64.4 °F 64.4 °F 100% 29.78 in 7.0 mi ESE 10.4 mph - N/A   Clear
2:06 AM 64.9 °F 64.0 °F 97% 29.78 in 8.0 mi ESE 8.1 mph - N/A   Partly Cloudy
2:53 AM 66.0 °F 64.0 °F 93% 29.76 in 9.0 mi SE 8.1 mph - N/A   Mostly Cloudy
3:04 AM 66.0 °F 64.0 °F 93% 29.77 in 8.0 mi South 9.2 mph - N/A   Overcast
3:53 AM 66.0 °F 64.0 °F 93% 29.76 in 7.0 mi South 11.5 mph - 0.00 in   Overcast
4:53 AM 66.0 °F 64.9 °F 96% 29.74 in 6.0 mi South 10.4 mph - 0.00 in   Overcast
5:53 AM 66.0 °F 64.9 °F 96% 29.73 in 2.5 mi SSW 8.1 mph - N/A   Overcast
6:02 AM 66.0 °F 64.9 °F 96% 29.75 in 1.2 mi SW 10.4 mph - N/A   Overcast
6:28 AM 66.0 °F 64.9 °F 96% 29.75 in 3.0 mi South 8.1 mph - 0.00 in   Overcast
6:53 AM 66.0 °F 64.9 °F 96% 29.75 in 4.0 mi South 4.6 mph - 0.01 in Rain Light Rain
7:13 AM 66.0 °F 64.9 °F 96% 29.74 in 1.8 mi SE 8.1 mph - 0.02 in Rain Heavy Rain
7:21 AM 66.0 °F 64.9 °F 96% 29.75 in 3.0 mi Calm Calm - 0.04 in Rain Light Rain
7:35 AM 66.0 °F 64.0 °F 93% 29.75 in 5.0 mi East 3.5 mph - 0.04 in   Mostly Cloudy
7:48 AM 66.2 °F 64.4 °F 94% 29.75 in 5.0 mi East 3.5 mph - 0.04 in   Overcast
7:49 AM 66.0 °F 64.9 °F 96% 29.75 in 5.0 mi East 3.5 mph - 0.04 in   Overcast
8:29 AM 68.0 °F 64.9 °F 90% 29.74 in 9.0 mi South 6.9 mph - N/A   Partly Cloudy
8:53 AM 69.1 °F 64.9 °F 87% 29.73 in 10.0 mi South 10.4 mph - N/A   Clear
9:53 AM 69.1 °F 62.1 °F 78% 29.72 in 10.0 mi SW 10.4 mph - N/A   Mostly Cloudy
10:53 AM 69.1 °F 63.0 °F 81% 29.71 in 10.0 mi SW 8.1 mph - 0.00 in Rain Light Rain
11:53 AM 72.0 °F 64.0 °F 76% 29.71 in 10.0 mi West 8.1 mph - 0.00 in   Overcast
12:36 PM 73.0 °F 64.9 °F 76% 29.71 in 10.0 mi West 8.1 mph - N/A   Overcast
12:53 PM 73.0 °F 64.9 °F 76% 29.70 in 10.0 mi West 8.1 mph - N/A   Mostly Cloudy
1:53 PM 75.0 °F 64.9 °F 71% 29.69 in 10.0 mi WNW 10.4 mph - N/A   Overcast
2:53 PM 73.9 °F 66.0 °F 76% 29.70 in 10.0 mi West 6.9 mph - 0.00 in Rain Light Rain
3:53 PM 77.0 °F 64.9 °F 66% 29.68 in 10.0 mi NW 5.8 mph - 0.00 in   Scattered Clouds
4:53 PM 75.0 °F 66.0 °F 73% 29.68 in 10.0 mi WNW 8.1 mph - N/A   Mostly Cloudy
5:15 PM 77.0 °F 64.9 °F 66% 29.69 in 10.0 mi NNW 10.4 mph - N/A   Mostly Cloudy
5:53 PM 78.1 °F 64.0 °F 62% 29.68 in 10.0 mi NNW 11.5 mph - N/A   Clear
6:53 PM 77.0 °F 66.0 °F 69% 29.69 in 10.0 mi NNW 8.1 mph - N/A   Partly Cloudy
7:53 PM 73.0 °F 64.9 °F 76% 29.69 in 10.0 mi NNW 8.1 mph - N/A   Partly Cloudy
8:53 PM 69.1 °F 64.9 °F 87% 29.70 in 10.0 mi NNW 4.6 mph - N/A   Clear
9:53 PM 66.9 °F 64.0 °F 90% 29.71 in 10.0 mi NNW 3.5 mph - N/A   Clear
10:53 PM 66.0 °F 63.0 °F 90% 29.71 in 10.0 mi NW 3.5 mph - N/A   Partly Cloudy
11:53 PM 64.9 °F 63.0 °F 93% 29.71 in 10.0 mi NW 3.5 mph - N/A   Clear